Location: Aetna Mine
(37.6183°N, 107.6045°W)
Time: 11:00:56
(UTC+00:00)

SJ-12 - Pass Details

Date: 18 September 2020
Orbit: 570 x 584 km, 97.7° (Epoch: 20 October)

Event Time Altitude Azimuth Distance (km) Brightness Sun altitude
Rises 12:22:09 0° 9° (N) 2,805 7.7 -7.4°
Reaches altitude 10° 12:24:18 10° 8° (N) 1,904 6.8 -7.0°
Maximum altitude 12:28:25 73° 284° (WNW) 612 3.9 -6.1°
Drops below altitude 10° 12:32:31 10° 200° (SSW) 1,895 6.3 -5.3°
Sets 12:34:40 0° 198° (SSW) 2,792 7.2 -4.9°
